TimeEST,TemperatureF,Dew PointF,Humidity,Sea Level PressureIn,VisibilityMPH,Wind Direction,Wind SpeedMPH,Gust SpeedMPH,PrecipitationIn,Events,Conditions,WindDirDegrees,DateUTC
12:56 AM,44.1,32.0,63,30.09,10.0,Calm,Calm,-,N/A,,Clear,0,2013-01-21 05:56:00
1:56 AM,44.1,32.0,63,30.09,10.0,Calm,Calm,-,N/A,,Clear,0,2013-01-21 06:56:00
2:56 AM,43.0,32.0,65,30.08,10.0,Calm,Calm,-,N/A,,Scattered Clouds,0,2013-01-21 07:56:00
3:56 AM,43.0,34.0,71,30.07,10.0,Calm,Calm,-,N/A,,Partly Cloudy,0,2013-01-21 08:56:00
4:56 AM,41.0,33.1,73,30.06,10.0,Calm,Calm,-,N/A,,Partly Cloudy,0,2013-01-21 09:56:00
5:56 AM,37.9,33.1,83,30.06,10.0,Calm,Calm,-,N/A,,Partly Cloudy,0,2013-01-21 10:56:00
6:56 AM,39.0,32.0,76,30.07,10.0,Calm,Calm,-,N/A,,Partly Cloudy,0,2013-01-21 11:56:00
7:56 AM,39.9,33.1,77,30.08,10.0,Calm,Calm,-,N/A,,Scattered Clouds,0,2013-01-21 12:56:00
8:56 AM,46.0,37.0,71,30.09,10.0,SW,3.5,-,N/A,,Scattered Clouds,230,2013-01-21 13:56:00
9:56 AM,52.0,37.9,59,30.11,10.0,WSW,4.6,-,N/A,,Scattered Clouds,250,2013-01-21 14:56:00
10:56 AM,59.0,36.0,42,30.11,10.0,West,9.2,-,N/A,,Scattered Clouds,260,2013-01-21 15:56:00
11:56 AM,66.0,34.0,30,30.08,10.0,West,12.7,-,N/A,,Scattered Clouds,260,2013-01-21 16:56:00
12:56 PM,64.9,28.9,26,30.03,10.0,West,11.5,-,N/A,,Mostly Cloudy,270,2013-01-21 17:56:00
1:56 PM,64.9,28.0,25,30.01,10.0,West,11.5,-,N/A,,Mostly Cloudy,270,2013-01-21 18:56:00
2:56 PM,66.9,28.9,24,29.99,10.0,West,11.5,-,N/A,,Mostly Cloudy,260,2013-01-21 19:56:00
3:56 PM,64.9,28.9,26,29.98,10.0,West,12.7,18.4,N/A,,Mostly Cloudy,270,2013-01-21 20:56:00
4:56 PM,63.0,32.0,31,29.99,10.0,West,8.1,-,N/A,,Mostly Cloudy,260,2013-01-21 21:56:00
5:56 PM,59.0,34.0,39,30.00,10.0,WSW,5.8,-,N/A,,Scattered Clouds,250,2013-01-21 22:56:00
6:56 PM,55.9,34.0,44,30.01,10.0,West,5.8,-,N/A,,Mostly Cloudy,260,2013-01-21 23:56:00
7:56 PM,57.0,34.0,42,30.02,10.0,West,6.9,-,N/A,,Mostly Cloudy,270,2013-01-22 00:56:00
8:56 PM,55.9,33.1,42,30.03,10.0,West,6.9,-,N/A,,Mostly Cloudy,280,2013-01-22 01:56:00
9:56 PM,55.0,32.0,42,30.04,10.0,West,9.2,-,N/A,,Mostly Cloudy,280,2013-01-22 02:56:00
10:56 PM,54.0,32.0,43,30.06,10.0,West,8.1,-,N/A,,Mostly Cloudy,280,2013-01-22 03:56:00
11:56 PM,52.0,32.0,47,30.06,10.0,West,6.9,-,N/A,,Mostly Cloudy,280,2013-01-22 04:56:00